Hourly Data Report for October 25, 2013

All times are specified in Local Standard Time (LST). Add 1 hour to adjust for Daylight Saving Time where and when it is observed.

ARVIAT A
NUNAVUT

61°05'38.000" N
94°04'18.000" W
10.40 m
2300427
71174
YEK

Download Data

Hourly Data (October 2013)
Hourly Data Report for October 25, 2013
Temp Definition
°C
Dew Point Temp Definition
°C
Rel Hum Definition
%
Wind Dir Definition
10's deg

Wind Spd Definition
km/h
Visibility Definition
km
Stn Press Definition
kPa
Hmdx Definition


Wind Chill Definition


Weather Definition


TIME
00:00 Legend Double Dagger -9.3 -9.7 97   0 0.8 101.06     LegendNANA
01:00 Legend Double Dagger -8.0 -8.4 97 8 5 0.4 100.98   -11 LegendNANA
02:00 Legend Double Dagger -8.1 -8.5 97 6 5 0.2 100.94   -11 LegendNANA
03:00 Legend Double Dagger -6.5 -6.6 99 7 8 0.6 100.90   -10 LegendNANA
04:00 Legend Double Dagger -5.3 -5.4 99 10 9 16.1 100.87   -9 LegendNANA
05:00 Legend Double Dagger -5.3 -5.4 99 8 8 16.1 100.83   -9 LegendNANA
06:00 Legend Double Dagger -4.8 -4.9 99 8 8 16.1 100.82   -8 LegendNANA
07:00 Legend Double Dagger -5.3 -5.6 98 LegendMM 5 16.1 100.86   -8 LegendNANA
08:00 Legend Double Dagger -3.7 -3.7 100 8 11 16.1 100.87   -8 LegendNANA
09:00 Legend Double Dagger -3.6 -3.6 100 6 13 16.1 100.88   -8 LegendNANA
10:00 Legend Double Dagger -3.4 -3.4 100 3 17 16.1 100.92   -9 LegendNANA
11:00 Legend Double Dagger -3.3 -3.3 100 3 15 16.1 100.99   -8 LegendNANA
12:00 Legend Double Dagger -3.6 -3.6 100 35 15 16.1 101.04   -9 LegendNANA
13:00 Legend Double Dagger -3.7 -3.7 100 36 18 16.1 101.07   -10 LegendNANA
14:00 Legend Double Dagger -3.8 -3.9 99 36 22 16.1 101.13   -10 LegendNANA
15:00 Legend Double Dagger -4.4 -4.9 96 36 18 16.1 101.19   -10 LegendNANA
16:00 Legend Double Dagger -5.5 -5.9 97 35 21 16.1 101.24   -12 LegendNANA
17:00 Legend Double Dagger -5.9 -6.0 99 34 22 16.1 101.31   -13 LegendNANA
18:00 Legend Double Dagger -6.2 -6.3 99 33 21 16.1 101.35   -13 LegendNANA
19:00 Legend Double Dagger -6.2 -6.7 96 32 21 16.1 101.41   -13 LegendNANA
20:00 Legend Double Dagger -5.4 -6.2 94 31 18 16.1 101.42   -12 LegendNANA
21:00 Legend Double Dagger -5.5 -6.0 96 30 17 16.1 101.39   -12 LegendNANA
22:00 Legend Double Dagger -5.1 -5.8 95 29 18 16.1 101.36   -11 LegendNANA
23:00 Legend Double Dagger -5.2 -5.6 97 27 13 16.1 101.31   -10 LegendNANA

Notes on Data Quality.

Legend

  • E = Estimated
  • M = Missing
  • NA = Not Available
  • ‡ = Partner data that is not subject to review by the National Climate Archives
Date modified: